www.pogodaiklimat.ru
ПОГОДА в Анджел Файер
Время
и дата
05:15 30.01
05:35 30.01
05:55 30.01
06:15 30.01
06:35 30.01
06:55 30.01
07:15 30.01
07:35 30.01
07:55 30.01
08:15 30.01
08:35 30.01
08:55 30.01
09:15 30.01
09:35 30.01
09:55 30.01
10:15 30.01
10:35 30.01
10:55 30.01
11:15 30.01
11:35 30.01
11:55 30.01
12:15 30.01
12:35 30.01
12:55 30.01
13:15 30.01
13:35 30.01
13:55 30.01
14:15 30.01
14:35 30.01
14:55 30.01
15:15 30.01
15:35 30.01
15:55 30.01
16:15 30.01
16:35 30.01
16:55 30.01
17:15 30.01
17:35 30.01
17:55 30.01
18:15 30.01
18:35 30.01
18:55 30.01
19:15 30.01
19:35 30.01
19:55 30.01
20:15 30.01
20:35 30.01
20:55 30.01
Ветер
(напр.,м/с)
Видим. Явления Облачность Т
(С)
Тd
(С)
f
(%)
Тe
(С)
Тes
(С)
Комфортность P
(гПа)
Po
(гПа)
Тmin
(С)
Tmax
(С)
R
(мм)
R24
(мм)
S
(см)
З 6
{9}
16 км ясно -2.1 -15.5 35 -8 -8 741.5
З 6
{9}
16 км ясно -2.1 -15.3 36 -8 -8 741.8
З 4
{7}
16 км ясно -2.2 -15.0 37 -7 -7 741.8
З 5
{7}
16 км ясно -2.8 -15.0 38 -9 -9 741.8
З 5
{7}
16 км ясно -3.0 -14.7 40 -9 -9 742.0
З 3
{10}
16 км ясно -3.1 -14.6 41 -7 -7 742.0
З 4
{9}
16 км ясно -2.8 -14.6 40 -8 -8 742.3
З 4 16 км ясно -3.2 -14.6 41 -8 -8 742.3
З 5
{10}
16 км ясно -2.0 -14.2 39 -8 -8 742.3
З 6
{8}
16 км ясно -1.9 -13.9 39 -8 -8 742.5
З 5
{9}
16 км ясно -1.5 -13.7 39 -7 -7 742.8
З 6
{11}
16 км ясно -1.0 -13.7 37 -7 -7 742.8
З 8
{12}
16 км ясно -0.6 -13.4 37 -7 -7 742.8
З 6
{13}
16 км ясно 0.0 -13.8 35 -6 -5 742.8
З 9
{12}
16 км ясно 0.0 -13.5 35 -7 -7 742.8
З 7
{11}
16 км ясно +0.4 -13.5 34 -6 -4 742.8
З 8
{13}
16 км ясно +0.5 -13.3 35 -6 -5 742.8
З 10
{15}
16 км ясно +0.3 -13.1 36 -7 -7 742.5 -3.2 +0.5
З 8
{13}
16 км ясно +0.3 -12.1 39 -6 -5 742.3
З 8
{17}
16 км ясно +0.9 -13.2 34 -5 -4 742.0
З 8
{13}
16 км ясно +1.1 -13.0 34 -5 -4 741.8
З 11
{15}
16 км ясно +0.8 -12.9 35 -6 -6 741.3
З 12
{16}
16 км ясно +1.2 -13.4 33 -6 -6 741.0
З 9
{18}
11 км ясно +0.6 -12.2 38 -6 -5 740.8
З 15
{21}
11 км ясно +0.4 -11.6 40 -8 -8 740.8
З 11
{17}
11 км ясно +1.1 -12.5 35 -6 -6 740.5
З 11
{17}
16 км ясно +0.9 -13.0 35 -6 -6 740.5
З 12
{16}
16 км ясно +0.9 -12.7 35 -7 -7 740.5
З 11
{14}
16 км ясно +1.1 -12.5 35 -6 -6 740.5
З 8
{15}
16 км ясно +1.2 -12.6 35 -5 -4 740.8
З 8
{15}
16 км ясно +1.0 -12.9 35 -5 -5 740.8
З 9
{13}
16 км ясно +1.1 -12.7 35 -5 -5 740.8
З 5
{14}
16 км ясно +1.0 -12.8 35 -4 -2 741.0
З 7
{10}
16 км ясно +1.0 -13.1 34 -5 -4 741.0
З 6
{11}
16 км ясно +0.6 -12.9 36 -5 -4 741.3
З 4
{11}
16 км ясно +0.1 -12.5 38 -4 -4 741.5 +0.1 +1.2
ЮЗ 2 16 км ясно -0.7 -12.9 39 -4 -4 741.8
ЮЗ 2 16 км ясно -0.7 -13.4 38 -3 -3 741.8
ЮЗ 2 16 км ясно -1.4 -13.4 40 -4 -4 741.8
штиль 0 16 км ясно -3.6 -13.2 47 -4 -4 742.0
Ю 4 16 км ясно -4.5 -12.8 52 -10 -10 742.0
Ю 5 16 км ясно -4.5 -12.1 55 -11 -11 742.3
Ю 5 16 км ясно -2.8 -12.4 48 -9 -9 742.3
Ю 4 16 км ясно -3.0 -12.0 50 -8 -8 742.5
Ю 4 16 км ясно -3.6 -12.1 52 -9 -9 742.8
Ю 6 16 км ясно -3.9 -11.9 54 -11 -11 742.5
Ю 4 16 км ясно -4.2 -11.9 55 -10 -10 742.5
Ю 5 16 км ясно -6.5 -12.8 61 -14 -14 742.8
Местоположение метеостанции Angel Fire Airfield: широта 36.4220 долгота -105.2899 высота над уровнем моря 2554 м.
В архиве по умолчанию представлена погода в Анджел Файер за последние 1-2 суток. Обновление информации о фактической погоде в базе происходит ежечасно! Архивные данные за месяц целиком и за предыдущие месяцы Вы можете получить, выбрав интересующий диапазон дат из раскрывающегося списка и нажав кнопку "Ввод!".
Внимание! Архив погоды МЕТАР в базе сайта по станциям, не включенным в климатический монитор, хранится не более 60 дней. Нет смысла пытаться выбрать более раннюю дату.
*Определитесь, кто Вы:
Внимание! Время в таблицах - местное (без учета летнего времени). Для получения всемирного времени необходимо вычесть поправку, которая равна -7 ч.
Смотрите также архив погоды в соседних городах и на ближайших метеорологических станциях:
Партнеры нашего сайта:      
Пояснения к столбцам:
  • Ветер - указаны скорость ветра в м/с - средняя за 10 мин, порывы в срок и между сроками (в фигурных скобках) и направление, откуда дует ветер: С - северный,
  • СВ - северо-восточный, В - восточный, ЮВ - юго-восточный, Ю - южный, ЮЗ - юго-западный, З - западный, СЗ - северо-западный.
  • Видимость - горизонтальная дальность видимости в метрах или километрах. При видимости от 1 до 10 км при отсутствии осадков обычно наблюдается дымка, при ухудшении видимости до 1 км и менее - туман. В сухую погоду видимость может ухудшаться дымом, пылью или мглою.
  • Явления - указаны атмосферные явления, наблюдавшиеся в срок или в последний час перед сроком; фигурными скобками обозначены явления, наблюдавшиеся между сроками (за 1-3 часа до срока); квадратными скобками обозначены град или гололедные отложения с указанием их диаметра в мм.
  • Облачность - указаны через наклонную черту общая и нижняя облачность в баллах и высота нижней границы облаков в метрах; квадратными скобками обозначены формы облаков: Ci - перистые, Cs - перисто-слоистые, Cc - перисто-кучевые, Ac - высококучевые, As - высокослоистые, Sc - слоисто-кучевые, Ns - слоисто-дождевые, Cu - кучевые, Cb - кучево-дождевые. Подробнее классификацию облаков см. в Атласе облаков (PDF).
  • T - Температура воздуха - температура, измеренная на высоте 2 м над землей.
  • Td - Температура точки росы - температура, при понижении до которой содержащийся в воздухе водяной пар достигнет насыщения.
  • f - Относительная влажность воздуха - влажноcть воздуха, измеренная на высоте 2 м над землей.
  • Te - Эффективная температура - температура, которую ощущает одетый по сезону человек в тени. Характеристика душности погоды. При расчете учитывается влияние влажности воздуха и скорости ветра на теплоощущения человека.
  • Tes - Эффективная температура на солнце - температура, которую ощущает человек, с поправкой на солнечный нагрев. Характеристика знойности погоды. Зависит от высоты солнца над горизонтом, облачности и скорости ветра. Ночью, в пасмурную погоду, а также при ветре 12 м/с и более поправка равна нулю.
  • P - Атмосферное давление - приведенное к уровню моря атмосферное давление.
  • Po - Атмосферное давление - измеренное на уровне метеостанции атмосферное давление.
  • Tmin - Минимальная температура - минимум температуры воздуха на высоте 2 м над землей.
  • Tmax - Максимальная температура - максимум температуры воздуха на высоте 2 м над землей.
  • R - Количество осадков - Количество выпавших осадков за период времени, мм. При наведении курсора мыши на число - период времени, за который выпало указанное количество осадков.
  • R24 - Количество осадков - Количество выпавших осадков за 24 часа, мм.
  • S - Снежный покров - Высота снежного покрова, см. При наведении курсора мыши на число - состояние снежного покрова и степень покрытия местности в баллах.